CAPE
0 0 0 0 0 0 0 0 0 0 0 0 0 0 0 0 0 0 55 483 936 1094 1038 517 8 77 164 204 280 286 171 216 243 222 98 11 0 0 0 1 15 26 59 113
0 0 0 0 0 0 0 0 2 0 0 0 0 0 0 0 0 0 64 422 858 1074 956 247 6 62 186 264 374 419 354 383 588 551 371 336 158 47 51 60 194 245 54 45
2 0 0 0 0 0 0 0 0 0 0 0 0 0 0 0 0 4 164 445 748 931 710 39 38 49 197 336 436 358 458 792 735 457 99 0 0 0 0 0 7 31 7 0
0 0 0 0 0 0 0 0 0 0 0 0 0 0 1 0 0 20 93 310 547 598 484 191 178 254 375 390 321 243 111 47 1 0 0 0 0 0 0 0 2 4 0 0
1 0 0 0 0 0 0 0 0 0 0 0 0 0 11 0 0 1 23 106 323 470 582 577 511 339 214 0 0 0 0 0 0 0 0 0 0 0 0 0 1 8 0 8
0 0 0 0 0 0 0 0 0 0 0 1 0 0 26 0 0 0 0 9 138 292 373 450 409 94 0 0 0 0 0 0 0 0 0 0 5 14 18 14 12 8 8 12
0 0 0 0 0 2 0 0 0 0 8 12 0 0 4 0 0 0 0 0 2 20 87 202 189 1 0 0 0 0 0 0 0 0 0 1 6 18 20 16 13 11 13 12
14 0 0 0 0 0 0 0 0 0 0 0 0 1 1 0 0 0 0 0 4 40 5 2 0 0 0 0 0 0 0 0 0 0 0 3 13 5 2 6 7 8 11 17
30 27 0 0 0 0 0 0 0 0 0 0 19 2 1 0 0 0 0 0 0 0 0 0 0 0 0 0 0 0 0 0 0 0 2 14 8 9 13 8 1 3 21 33
5 0 17 0 0 0 0 0 0 2 0 0 0 1 19 0 0 0 0 4 0 0 0 0 0 0 0 0 0 0 0 0 0 1 6 2 3 8 9 13 3 2 2 11
0 4 25 3 3 0 0 0 0 0 0 0 0 10 0 0 0 0 0 0 0 0 0 0 0 0 0 0 0 0 0 0 0 6 5 5 5 5 6 5 2 4 3 4
41 71 19 30 0 0 0 0 0 0 0 1 0 0 0 0 0 0 0 0 0 0 0 0 0 0 0 0 0 0 0 0 2 6 7 4 6 5 2 1 6 21 31 5
37 20 12 8 19 0 0 0 0 0 0 0 0 1 1 0 0 0 0 0 0 0 0 0 0 0 0 0 0 0 0 1 3 4 5 5 4 3 3 3 3 3 5 0
0 27 13 0 4 0 0 0 0 0 0 0 0 0 0 0 0 0 0 0 0 0 0 0 0 0 0 0 0 0 0 4 3 4 2 1 2 1 1 2 1 3 1 2
0 0 0 0 0 0 0 0 0 0 0 0 0 0 0 0 0 0 0 0 0 0 0 0 0 0 0 0 0 0 0 4 0 8 2 2 1 2 0 1 3 1 2 2
0 0 0 0 0 0 0 0 0 0 0 0 0 0 0 0 0 0 0 0 0 0 0 0 0 0 0 0 0 0 2 1 1 1 0 2 2 4 2 3 0 1 1 1
0 0 11 5 4 0 0 2 0 0 0 0 0 0 0 0 0 0 0 0 0 0 0 0 0 0 0 0 0 0 3 0 3 0 0 1 1 1 4 0 0 1 1 3
14 16 20 28 21 4 20 0 0 0 0 0 0 0 0 0 0 0 0 0 0 0 0 0 0 0 0 0 0 0 2 2 2 1 1 1 4 6 1 1 1 1 1 1
24 81 53 61 47 31 3 27 0 0 0 0 0 1 0 0 0 1 0 0 0 0 0 0 0 0 0 0 0 0 2 1 4 1 1 5 6 1 0 2 2 1 2 1
48 61 61 40 56 49 44 45 12 3 0 28 7 1 0 0 0 17 0 0 0 0 0 0 0 0 0 0 0 0 4 0 2 8 5 7 5 0 2 2 1 2 1 4
3 48 9 40 42 56 45 5 0 0 5 66 52 13 13 1 3 0 0 0 0 0 0 0 0 0 0 0 0 1 3 7 6 8 4 6 1 1 2 2 2 1 2 0
112 122 9 72 122 21 41 24 0 0 77 189 82 73 47 18 1 0 0 0 0 0 0 0 0 0 0 0 0 0 1 0 3 4 3 6 0 1 2 1 1 1 3 1
56 206 66 43 8 173 116 68 41 116 132 90 119 91 47 12 1 0 1 0 0 0 0 0 0 0 0 0 0 0 2 1 2 0 6 3 0 1 1 2 1 4 3 1
65 70 73 71 41 65 89 62 133 70 64 203 115 66 71 30 0 0 1 0 0 0 0 0 0 0 0 0 0 2 0 2 2 3 4 0 0 1 1 1 2 3 1 1
48 143 159 185 189 92 122 233 122 48 204 236 237 179 138 82 11 0 1 0 0 0 0 0 0 0 0 0 0 3 0 1 2 1 4 1 0 2 1 0 0 0 1 0
23 37 84 107 200 509 407 459 289 217 306 313 181 90 120 28 0 0 6 0 0 0 0 0 0 0 0 0 2 0 0 1 0 2 6 0 0 2 1 1 1 0 0 0
CIN
0 0 0 0 0 0 0 0 0 0 0 0 0 0 0 0 0 0 -1 -5 -4 -3 -4 -15 -109 -99 -77 -89 -88 -100 -112 -100 -90 -71 -67 -84 0 0 0 -2 -2 -4 -2 -1
0 0 0 0 0 0 0 0 -2 0 0 0 0 0 0 0 0 0 -6 -3 -4 -3 -2 -7 -96 -76 -52 -62 -80 -86 -78 -62 -26 -10 -15 -11 -9 -7 -2 -4 -4 -5 -32 -25
-1 0 0 0 0 0 0 0 0 0 0 0 0 0 0 0 0 -37 -14 -3 -4 -3 -3 -17 -36 -26 -12 -20 -45 -46 -30 -17 -12 -40 -54 0 0 0 0 0 -9 -15 -22 0
0 0 0 0 0 0 0 0 0 0 0 0 0 0 -19 0 0 -60 -49 -20 -3 -3 -5 -7 -2 -3 -2 -4 -11 -30 -115 -141 -5 0 0 0 0 0 0 0 -3 -9 0 0
-6 0 0 0 0 0 0 0 0 0 0 0 0 0 -52 0 0 -4 -13 -15 -5 -5 -6 -2 -5 -5 -42 0 0 0 0 0 0 0 0 0 0 0 0 0 -3 -2 0 -2
0 0 0 0 0 0 0 0 0 0 0 -4 0 0 -4 0 0 0 0 -28 -2 -6 -3 -3 -6 -46 0 0 0 0 0 0 0 0 0 0 -1 -1 -2 -2 -2 -3 -2 -2
0 0 0 0 0 -3 0 0 0 0 -4 -8 0 0 -3 0 0 0 0 0 -2 -4 -4 -2 -11 -1 0 0 0 0 0 0 0 0 0 -1 -1 -2 -3 -3 -3 -3 -2 -3
-6 0 0 0 0 0 0 0 0 0 0 -1 0 -1 -1 0 0 0 0 0 -2 -3 -1 -1 0 0 0 0 0 0 0 0 0 0 0 -1 -2 -10 -13 -14 -11 -5 -2 -2
-4 -8 0 0 0 0 0 0 0 0 0 0 -6 -5 -7 0 0 0 0 0 0 0 0 0 0 0 0 0 0 0 0 0 0 0 -2 -2 -6 -1 -2 -1 -6 -6 -1 -1
-1 0 -4 0 0 0 0 0 0 -3 0 0 -2 -3 -12 0 0 0 0 -3 -1 0 0 0 0 0 0 0 0 0 0 0 0 -2 -3 -4 -6 -1 -2 -1 -1 -1 -10 -1
0 -8 -5 -11 -5 -1 0 0 0 0 0 0 0 -5 0 0 0 0 0 0 0 0 0 0 0 0 0 0 0 0 0 0 0 -3 -2 -1 -2 -2 -1 -1 -2 -1 -2 -8
-10 -4 -5 -4 0 0 0 0 0 0 0 -5 0 0 0 0 0 0 0 0 0 0 0 0 0 0 0 0 0 0 0 0 -3 -2 -1 -2 -3 -3 -4 -3 0 0 0 -4
-22 -4 -2 -3 -19 0 0 0 0 0 0 0 0 -2 -1 0 0 -1 0 0 0 0 0 0 0 0 0 0 0 0 0 -1 -2 -2 -2 -2 -1 -1 -1 -4 -2 -3 -2 -4
0 -13 -5 0 -3 0 0 0 0 0 0 0 0 0 0 0 0 0 0 0 0 0 0 0 0 0 0 0 0 0 0 -2 -2 -2 -2 -1 -1 -2 -2 -1 -2 -1 -3 0
0 0 0 0 0 0 0 0 0 0 0 0 0 0 0 0 0 0 0 0 0 0 0 0 0 0 0 0 0 0 0 -1 0 -1 -3 -2 -1 -1 -1 -1 -1 -1 0 0
0 0 0 0 0 0 0 0 0 0 0 0 0 0 0 0 0 0 0 0 0 0 0 0 0 0 0 0 0 0 -1 -3 -3 -4 0 -1 -1 0 -1 -1 0 0 0 0
0 0 -2 -3 -3 0 0 -1 0 0 0 0 0 0 0 0 0 0 0 0 0 0 0 0 0 0 0 0 0 0 -2 -3 -2 -1 -1 -1 0 0 0 -2 0 0 0 -5
-8 -1 -3 -5 -4 -3 -6 0 0 0 0 0 0 0 0 0 0 0 0 0 0 0 0 0 0 0 0 0 0 0 -2 -1 -2 -1 -1 -1 -1 -1 -1 0 0 0 0 0
-6 -3 -3 -4 -3 -4 -4 -4 0 0 0 0 -1 -2 0 0 0 -11 0 0 0 0 0 0 0 0 0 0 0 0 -2 -1 -1 0 0 -1 -1 -1 0 0 0 0 0 0
-8 -11 -3 -6 -4 -5 -2 -10 -20 -4 0 -2 -3 -1 0 0 0 -7 0 0 0 0 0 0 0 0 0 0 0 -2 -1 0 0 -1 -1 -1 0 -1 0 0 0 0 0 0
-15 -7 -5 -5 -5 -4 -10 -8 0 0 -2 -2 -3 -2 -3 -1 -3 0 0 0 0 0 0 0 0 0 0 0 0 -1 -1 0 0 0 -1 -1 -2 0 0 0 0 0 0 0
-5 -10 -5 -14 -4 -3 -8 -16 0 0 -5 -3 -3 -5 -2 -5 -5 0 0 0 0 0 0 0 0 0 0 0 0 0 0 -1 -1 -3 -2 -1 -1 0 0 0 0 0 0 0
-14 -15 -6 -5 -38 -1 -8 -10 -15 -5 -3 -9 -3 -6 -13 -11 -9 0 -2 0 0 0 0 0 0 0 0 0 -1 -1 0 -2 0 -1 -1 -1 0 0 0 0 0 0 0 0
-5 -8 -4 -8 -6 -6 -3 -4 -5 -5 -5 -5 -1 -11 -8 -7 -10 0 0 0 0 0 0 0 0 0 0 0 0 -1 -1 0 -1 0 -1 -1 0 0 0 0 0 0 0 0
-7 -6 -15 -18 -4 -4 -4 -5 -59 -23 -4 -7 -2 -5 -5 -8 -41 0 -1 0 0 0 0 0 0 0 0 0 -1 -1 0 -1 -1 -1 0 -1 0 0 0 0 0 0 0 0
-9 -26 -16 -12 -5 -3 -6 -7 -13 -25 -18 -18 -16 -19 -9 -24 0 0 -13 0 0 0 0 0 0 0 0 0 -1 -1 0 0 -1 -1 -1 0 0 0 0 0 0 0 0 0
Wind_Speed
10 17 11 15 19 22 19 11 6 8 12 10 4 4 11 12 11 8 5 3 3 2 1 2 0 5 9 12 16 19 22 22 25 26 29 29 30 35 34 34 34 33 31 27
10 10 13 16 20 12 8 6 6 13 8 6 5 4 3 11 13 12 5 3 3 2 1 1 2 6 11 15 19 21 21 23 26 28 30 31 33 32 32 33 30 29 26 26
17 10 12 13 10 16 5 11 18 12 12 5 3 7 3 12 16 13 9 9 5 3 2 2 4 8 14 18 22 21 23 26 28 29 30 31 33 34 35 34 34 33 33 33
12 12 12 10 12 19 14 21 11 8 7 10 17 14 11 15 16 14 11 6 4 2 2 3 4 8 15 19 21 23 26 26 27 30 32 34 34 36 35 34 33 36 36 36
11 9 9 9 18 20 24 20 10 10 9 8 7 14 13 14 19 20 11 8 4 2 2 3 6 14 21 21 22 22 23 27 29 31 32 34 36 36 35 34 36 36 34 28
13 15 13 19 15 16 19 13 5 4 9 8 15 20 16 21 22 20 19 17 10 6 4 5 11 18 18 19 23 25 27 28 29 30 32 34 34 35 35 35 32 30 30 30
11 9 13 14 17 9 25 29 22 14 8 19 15 17 18 20 21 20 20 17 14 11 9 9 15 16 19 21 23 27 29 30 29 30 33 33 34 33 32 32 33 31 31 30
12 11 9 15 19 22 20 25 20 22 21 22 13 17 16 18 19 18 19 18 16 13 17 15 15 18 21 25 27 28 29 30 30 31 32 32 32 32 32 31 32 30 27 26
15 13 13 16 17 20 26 22 21 15 7 11 15 17 13 15 18 16 19 21 17 15 14 12 14 16 22 25 26 27 27 28 31 32 30 31 30 31 30 28 26 24 24 26
18 19 13 15 18 12 17 23 15 10 19 20 20 21 18 18 22 21 24 20 13 14 13 12 15 17 21 24 25 26 29 30 31 30 30 32 31 28 29 29 25 24 24 23
18 16 17 15 11 21 24 16 14 16 15 20 19 20 19 22 23 24 26 23 18 14 13 15 18 21 22 23 26 28 29 31 29 29 33 30 29 26 28 28 27 26 28 28
14 17 21 25 18 23 20 16 18 16 16 14 19 21 20 23 25 27 24 21 19 18 18 19 20 22 23 26 27 29 30 29 28 30 31 31 29 29 27 25 25 26 26 29
13 16 23 23 14 16 15 17 17 17 17 15 19 18 15 27 27 22 21 19 18 18 19 21 22 24 25 27 28 29 29 26 27 29 29 30 31 32 29 26 26 26 29 31
16 19 20 25 29 24 24 23 18 15 17 18 17 26 27 29 28 26 20 19 20 21 23 23 23 25 26 28 29 29 27 26 25 27 28 31 30 31 29 27 25 28 30 30
17 21 23 22 25 24 23 24 21 16 15 17 20 25 27 26 26 25 24 22 21 23 24 24 24 26 27 29 29 28 27 27 25 26 27 30 31 31 29 26 29 30 29 28
15 24 23 27 25 21 25 25 19 16 18 19 20 23 19 25 23 24 23 23 24 24 24 24 24 26 28 31 30 31 30 29 26 27 29 30 31 31 29 30 31 30 27 26
15 21 21 28 26 27 30 25 17 14 17 18 20 24 27 25 26 26 25 24 26 27 25 23 25 26 29 30 30 31 31 29 27 29 30 29 30 31 30 30 28 27 27 25
16 17 22 26 25 30 20 21 21 20 20 20 20 19 23 24 25 27 23 23 28 28 25 24 24 26 29 29 29 30 31 29 28 29 28 29 32 31 31 28 27 26 25 23
14 17 23 24 26 30 30 25 17 19 21 22 23 19 24 24 28 28 18 23 27 27 25 23 24 26 28 29 31 30 31 30 28 26 29 30 32 31 27 26 25 22 18 13
15 15 20 25 29 31 24 21 20 22 26 29 13 19 23 25 27 25 23 24 25 25 24 24 25 25 28 30 30 32 31 31 27 28 28 28 29 29 23 23 22 19 10 8
20 17 20 22 25 28 23 18 17 25 27 21 18 21 23 25 27 27 25 24 23 24 24 23 24 27 29 30 31 34 32 30 27 25 26 27 29 26 21 20 20 16 11 21
21 23 24 11 29 31 18 17 24 26 26 23 23 23 25 26 28 27 23 24 24 24 24 24 26 27 29 31 32 33 30 28 25 24 25 27 30 24 20 20 17 10 11 11
21 19 31 35 23 22 21 24 28 25 28 28 26 25 27 28 31 31 26 22 22 23 24 24 27 27 30 30 33 33 29 27 25 24 27 27 30 23 20 19 16 14 19 19
25 22 25 25 23 31 29 29 21 24 26 22 23 28 29 31 34 34 28 22 21 22 24 25 27 28 30 32 33 30 27 26 24 25 26 27 31 22 20 20 22 23 26 24
27 21 17 13 23 25 23 28 29 22 17 17 23 28 30 31 35 35 28 22 22 22 24 25 27 28 29 32 32 29 26 26 25 25 25 27 29 23 22 24 29 24 26 22
25 23 24 24 27 26 25 26 24 27 25 26 29 31 31 31 36 34 25 21 21 22 23 25 27 28 29 31 31 28 25 26 25 24 25 26 27 23 23 23 27 34 30 28
Wind_Direction
113 179 78 346 328 309 343 25 55 29 20 17 26 5 358 343 355 346 322 292 271 259 215 136 88 356 349 348 345 344 342 343 342 340 339 337 336 332 330 328 327 325 323 323
106 129 352 346 335 30 69 74 51 17 36 24 357 329 307 358 355 349 340 329 320 312 274 315 273 332 337 338 338 338 339 339 339 337 337 334 332 331 330 329 328 332 339 329
276 22 8 15 49 11 108 31 7 16 3 334 276 340 105 13 6 7 4 347 342 319 275 299 304 322 331 334 334 336 338 338 338 337 336 335 334 331 330 331 329 326 326 325
342 360 6 41 28 358 24 357 21 23 19 18 18 13 42 23 16 20 17 15 356 337 329 301 299 322 332 333 337 339 339 341 342 341 338 338 334 333 333 330 329 326 323 321
9 40 44 49 349 351 341 4 25 28 22 23 70 28 37 35 26 21 27 27 26 4 338 324 315 340 338 338 340 344 344 341 341 341 341 338 335 334 332 330 327 325 323 321
352 341 0 345 3 5 1 5 8 60 52 31 40 19 32 12 13 16 19 17 24 24 4 354 353 341 341 345 343 342 341 341 342 342 341 339 337 336 334 332 330 331 332 331
14 47 16 9 357 39 344 344 8 16 32 5 30 9 22 19 17 18 20 27 27 24 13 10 349 345 344 342 342 341 341 340 342 341 339 340 339 337 336 337 335 335 334 332
356 352 34 13 354 347 358 355 4 350 352 350 9 20 26 22 22 25 20 17 19 22 359 354 352 348 344 343 342 342 343 342 343 341 342 342 342 342 340 337 335 334 334 334
341 352 3 357 359 356 342 355 355 3 9 10 19 16 33 33 20 18 12 9 8 7 4 3 359 356 348 345 346 346 345 345 344 343 344 345 347 345 342 342 338 336 336 335
330 324 354 2 353 7 2 352 5 26 359 355 359 358 27 19 10 12 2 2 7 8 7 8 1 356 352 350 350 350 349 347 346 346 346 347 346 348 346 345 344 340 337 335
326 335 338 353 359 342 339 354 10 0 356 349 351 3 10 1 359 355 350 354 2 7 9 6 1 354 355 353 352 352 350 349 349 349 347 349 349 349 348 344 343 340 336 335
341 334 324 319 345 340 345 347 349 350 351 350 346 343 2 356 350 353 358 2 8 7 2 359 357 356 356 354 355 353 353 351 352 351 350 351 351 351 349 346 343 342 339 338
340 334 324 328 347 352 357 355 348 345 344 343 342 350 13 353 352 358 3 5 5 4 1 359 357 357 356 356 356 356 355 355 355 353 353 353 352 351 349 347 345 342 340 336
330 323 319 316 316 326 325 328 335 337 335 339 338 337 340 344 349 351 2 3 359 358 356 357 357 357 357 357 358 358 358 358 357 355 354 353 352 350 349 346 345 343 340 337
326 318 317 319 319 322 322 324 326 324 325 326 334 333 339 347 349 351 353 358 359 357 357 358 358 357 357 357 359 360 359 359 357 353 352 352 351 350 349 348 347 343 341 339
326 316 318 314 319 322 320 321 323 321 325 326 332 335 354 347 351 352 351 354 356 357 358 360 358 358 357 357 359 359 359 0 358 354 353 352 353 352 352 351 347 347 346 344
323 322 319 314 321 320 318 325 325 320 330 331 329 334 336 343 346 348 348 351 353 355 358 360 358 358 357 358 360 0 0 1 1 358 356 356 356 355 355 354 354 353 349 349
317 319 320 314 319 315 332 338 334 327 328 330 330 334 338 341 344 342 347 352 351 354 357 359 359 359 358 359 1 1 2 2 3 1 0 0 359 359 358 359 358 2 2 2
309 311 313 315 313 316 323 331 331 329 325 325 327 334 336 340 341 350 2 352 349 354 358 1 0 360 358 0 1 3 3 2 3 3 3 3 4 3 6 8 11 15 22 32
308 305 306 309 307 310 323 337 339 333 321 330 341 334 336 339 338 348 353 350 351 355 359 359 359 0 359 0 2 3 3 2 4 5 5 6 8 8 13 16 19 24 33 53
308 294 301 298 301 310 325 330 344 322 323 330 333 332 334 333 334 336 344 348 351 354 358 0 0 359 359 1 2 2 2 5 8 8 9 11 12 15 21 24 27 33 43 18
299 303 314 297 308 306 334 334 319 321 323 328 325 327 329 331 333 335 339 342 346 350 355 358 357 358 360 1 3 3 6 8 11 12 13 16 15 22 29 31 32 38 54 70
295 299 299 301 308 327 331 316 317 318 315 316 318 323 325 327 328 329 333 338 342 348 353 357 356 358 359 3 4 5 10 12 15 16 16 19 19 29 38 37 37 46 47 51
303 306 301 307 307 306 311 315 319 318 313 319 320 318 318 319 323 324 328 334 339 346 350 354 355 356 359 1 3 8 13 14 17 18 20 22 21 35 42 43 45 45 36 40
301 322 321 303 316 314 315 317 326 306 334 324 321 318 316 316 316 320 324 329 334 341 347 353 354 355 358 1 5 10 15 16 19 21 24 25 25 40 45 46 43 52 47 51
304 307 307 306 312 320 316 324 327 323 325 320 317 316 315 315 313 316 319 324 330 337 343 350 352 354 358 1 6 11 17 18 20 23 27 28 30 43 49 53 54 43 51 54